Regional Weather Roundup
Issued by NWS

Home | Current Version | Previous Version | Graphics & Text | Print | Product List | Glossary On
Versions: 1 2 3 4 5 6 7 8 9 10 11 12 13 14 15 16 17 18 19 20 21 22 23 24 25 26 27 28 29 30 31 32 33 34 35 36 37 38 39 40 41 42 43 44 45 46 47 48 49 50
000
ASUS43 KLSX 181657
RWRMO

WEATHER SUMMARY FOR MISSOURI
NATIONAL WEATHER SERVICE SPRINGFIELD MO
1100 AM CST THU JAN 18 2018

NOTE: "FAIR" INDICATES FEW OR NO CLOUDS BELOW 12,000 FEET WITH NO
       SIGNIFICANT WEATHER AND/OR OBSTRUCTIONS TO VISIBILITY.
       CURRENT SKY AND/OR WEATHER CONDITIONS ARE NOT AVAILABLE FOR
       CHILLICOTHE AND FARMINGTON.

MOZ001>031-035>038-043-044-053-054-181800-
...NORTHERN AND WESTERN MISSOURI...

CITY           SKY/WX    TMP DP  RH WIND       PRES   REMARKS
KANSAS CTY INT MOSUNNY   28  13  53 SW18      30.20F WCI  15
LEE`S SUMMIT   SUNNY     30  14  51 SW20      30.23F WCI  17
ST JOSEPH      SUNNY     27  15  61 SW16G24   30.19F WCI  15
CHILLICOTHE      N/A     29  13  51 SW10      30.22S WCI  20

$$
MOZ066>068-077>081-088>096-101>105-181800-
...SOUTHWEST MISSOURI...

CITY           SKY/WX    TMP DP  RH WIND       PRES   REMARKS
SPRINGFIELD    SUNNY     31  12  45 S14       30.35F WCI  21
JOPLIN         SUNNY     31  12  45 SW22      30.36F WCI  18
BRANSON        SUNNY     32   7  34 CALM      30.41F

$$
MOZ032>034-039>042-045>050-055>058-069>072-181800-
...CENTRAL MISSOURI...

CITY           SKY/WX    TMP DP  RH WIND       PRES   REMARKS
COLUMBIA       NOT AVBL
JEFFERSON CITY SUNNY     31  11  43 S8        30.33F WCI  23
ROLLA          SUNNY     30  13  49 SW16      30.33F WCI  19
SEDALIA        SUNNY     30  15  53 SW16G23   30.29F WCI  19
WARRENSBURG    SUNNY     30  12  47 S14       30.27F WCI  20

$$
MOZ051-052-059>065-181800-
...EAST CENTRAL MISSOURI...

CITY           SKY/WX    TMP DP  RH WIND       PRES   REMARKS
ST LOUIS INTL  SUNNY     35  12  38 SW13      30.34F WCI  26

$$
MOZ072>076-082>087-097>100-106>115-181800-
...SOUTH CENTRAL AND SOUTHEAST MISSOURI...

CITY           SKY/WX    TMP DP  RH WIND       PRES   REMARKS
CAPE GIRARDEAU FAIR      24  15  68 S10       30.48F WCI  14
POPLAR BLUFF   FAIR      24  16  71 SW8       30.49F WCI  15
WEST PLAINS    SUNNY     29  10  45 SW9       30.41F WCI  20

$$



USA.gov is the U.S. government's official web portal to all federal, state and local government web resources and services.